When you browse on this site, cookies collect data to enhance your experience and personalize the content and advertising you see.
Visit our Privacy Policy to learn more. By continuing to use the site, you agree to this use of cookies and data.
  • In Hungary
  • List of Countries
  • For 7 days
  • Water Temperature
  • Satellite Maps
  • Weather Map
  • News
  • Weather Widgets
  • user-avatar
    Login

    Hourly Weather Merida

    Today, 24 January, Thursday

    Time Temperature Precipitation Wind Pressure Humidity
    00:00 +10°C° 0 mm 4 mps 740 mmHg 90%
    01:00 +10°C° 0 mm 4 mps 740 mmHg 91%
    02:00 +10°C° 0 mm 4 mps 740 mmHg 91%
    03:00 +10°C° 0 mm 4 mps 740 mmHg 92%
    04:00 +10°C° 0 mm 4 mps 740 mmHg 92%
    05:00 +10°C° 0 mm 4 mps 739 mmHg 92%
    06:00 +8°C° 0 mm 4 mps 739 mmHg 92%
    07:00 +10°C° 0 mm 4 mps 739 mmHg 90%
    08:00 +11°C° 0 mm 4 mps 740 mmHg 87%
    09:00 +11°C° 0 mm 3 mps 740 mmHg 85%
    10:00 +13°C° 0 mm 5 mps 740 mmHg 75%
    11:00 +16°C° 0 mm 6 mps 740 mmHg 65%
    12:00 +18°C° 0 mm 7 mps 740 mmHg 55%
    13:00 +18°C° 0 mm 7 mps 740 mmHg 53%
    14:00 +20°C° 0 mm 6 mps 740 mmHg 52%
    15:00 +20°C° 0 mm 6 mps 740 mmHg 50%
    16:00 +17°C° 0 mm 5 mps 740 mmHg 57%
    17:00 +17°C° 0 mm 4 mps 740 mmHg 64%
    18:00 +14°C° 0 mm 3 mps 740 mmHg 70%
    19:00 +13°C° 0 mm 3 mps 741 mmHg 71%
    20:00 +13°C° 0 mm 3 mps 741 mmHg 72%
    21:00 +12°C° 0 mm 4 mps 742 mmHg 72%
    22:00 +11°C° 0 mm 3 mps 742 mmHg 75%
    23:00 +11°C° 0 mm 3 mps 742 mmHg 77%

    Tomorrow, 25 January, Friday

    Time Temperature Precipitation Wind Pressure Humidity
    00:00 +10°C° 0 mm 2 mps 743 mmHg 79%
    01:00 +9°C° 0 mm 2 mps 743 mmHg 81%
    02:00 +10°C° 0 mm 1 mps 743 mmHg 84%
    03:00 +9°C° 0 mm 1 mps 743 mmHg 86%
    04:00 +9°C° 0 mm 1 mps 743 mmHg 87%
    05:00 +8°C° 0 mm 1 mps 743 mmHg 88%
    06:00 +8°C° 0 mm 1 mps 743 mmHg 89%
    07:00 +9°C° 0 mm 1 mps 743 mmHg 86%
    08:00 +10°C° 0 mm 1 mps 744 mmHg 83%
    09:00 +10°C° 0 mm 1 mps 744 mmHg 80%
    10:00 +13°C° 0 mm 1 mps 744 mmHg 72%
    11:00 +15°C° 0 mm 1 mps 744 mmHg 65%
    12:00 +18°C° 0 mm 1 mps 745 mmHg 58%
    13:00 +19°C° 0 mm 1 mps 744 mmHg 54%
    14:00 +19°C° 0 mm 1 mps 744 mmHg 51%
    15:00 +20°C° 0 mm 1 mps 744 mmHg 47%
    16:00 +18°C° 0 mm 1 mps 744 mmHg 54%
    17:00 +15°C° 0 mm 1 mps 744 mmHg 62%
    18:00 +13°C° 0 mm 1 mps 744 mmHg 69%
    19:00 +13°C° 0 mm 1 mps 744 mmHg 72%
    20:00 +12°C° 0 mm 1 mps 745 mmHg 76%
    21:00 +11°C° 0 mm 1 mps 745 mmHg 80%
    22:00 +11°C° 0 mm 1 mps 745 mmHg 81%
    23:00 +10°C° 0 mm 1 mps 745 mmHg 81%

    Day after tomorrow, 26 January, Saturday

    Time Temperature Precipitation Wind Pressure Humidity
    00:00 +10°C° 0 mm 1 mps 745 mmHg 82%
    01:00 +9°C° 0 mm 1 mps 745 mmHg 83%
    02:00 +9°C° 0 mm 1 mps 745 mmHg 85%
    03:00 +9°C° 0 mm 1 mps 745 mmHg 86%
    04:00 +8°C° 0 mm 1 mps 745 mmHg 86%
    05:00 +8°C° 0 mm 1 mps 745 mmHg 86%
    06:00 +8°C° 0 mm 1 mps 745 mmHg 86%
    07:00 +8°C° 0 mm 1 mps 745 mmHg 82%
    08:00 +9°C° 0 mm 1 mps 745 mmHg 78%
    09:00 +10°C° 0 mm 1 mps 746 mmHg 74%
    10:00 +12°C° 0 mm 1 mps 746 mmHg 66%
    11:00 +14°C° 0 mm 1 mps 746 mmHg 58%
    12:00 +16°C° 0 mm 1 mps 746 mmHg 50%
    13:00 +18°C° 0 mm 1 mps 745 mmHg 48%
    14:00 +18°C° 0 mm 1 mps 745 mmHg 46%
    15:00 +19°C° 0 mm 1 mps 744 mmHg 44%
    16:00 +15°C° 0 mm 0 mps 744 mmHg 51%
    17:00 +13°C° 0 mm 0 mps 744 mmHg 57%
    18:00 +11°C° 0 mm 0 mps 743 mmHg 64%
    19:00 +11°C° 0 mm 0 mps 743 mmHg 67%
    20:00 +10°C° 0 mm 0 mps 744 mmHg 69%
    21:00 +9°C° 0 mm 0 mps 744 mmHg 72%
    22:00 +10°C° 0 mm 1 mps 744 mmHg 74%
    23:00 +10°C° 0 mm 1 mps 744 mmHg 76%

    27 January, Sunday

    Time Temperature Precipitation Wind Pressure Humidity
    00:00 +9°C° 0 mm 1 mps 744 mmHg 78%
    01:00 +9°C° 0 mm 1 mps 744 mmHg 80%
    02:00 +8°C° 0 mm 1 mps 744 mmHg 83%
    03:00 +8°C° 0 mm 1 mps 743 mmHg 85%
    04:00 +7°C° 0 mm 1 mps 743 mmHg 86%
    05:00 +7°C° 0 mm 1 mps 743 mmHg 88%
    06:00 +5°C° 0 mm 2 mps 743 mmHg 89%
    07:00 +6°C° 0 mm 2 mps 743 mmHg 87%
    08:00 +6°C° 0 mm 2 mps 744 mmHg 84%
    09:00 +7°C° 0 mm 2 mps 744 mmHg 81%
    10:00 +9°C° 0 mm 3 mps 744 mmHg 73%
    11:00 +11°C° 0 mm 4 mps 744 mmHg 64%
    12:00 +13°C° 0 mm 5 mps 744 mmHg 56%
    13:00 +14°C° 0 mm 5 mps 744 mmHg 53%
    14:00 +14°C° 0 mm 6 mps 744 mmHg 50%
    15:00 +14°C° 0 mm 6 mps 743 mmHg 47%
    16:00 +11°C° 0 mm 6 mps 744 mmHg 50%
    17:00 +10°C° 0 mm 5 mps 744 mmHg 52%
    18:00 +8°C° 0 mm 5 mps 744 mmHg 55%
    19:00 +8°C° 0 mm 5 mps 745 mmHg 56%
    20:00 +7°C° 0 mm 5 mps 746 mmHg 57%
    21:00 +7°C° 0 mm 6 mps 746 mmHg 59%
    22:00 +6°C° 0 mm 5 mps 747 mmHg 61%
    23:00 +5°C° 0 mm 4 mps 747 mmHg 63%

    28 January, Monday

    Time Temperature Precipitation Wind Pressure Humidity
    00:00 +5°C° 0 mm 4 mps 747 mmHg 65%
    01:00 +4°C° 0 mm 3 mps 747 mmHg 68%
    02:00 +3°C° 0 mm 3 mps 747 mmHg 70%
    03:00 +4°C° 0 mm 2 mps 747 mmHg 72%
    04:00 +3°C° 0 mm 2 mps 747 mmHg 74%
    05:00 +3°C° 0 mm 2 mps 747 mmHg 76%
    06:00 +3°C° 0 mm 2 mps 748 mmHg 78%
    07:00 +3°C° 0 mm 2 mps 748 mmHg 75%
    08:00 +4°C° 0 mm 2 mps 748 mmHg 72%
    09:00 +5°C° 0 mm 2 mps 749 mmHg 69%
    10:00 +8°C° 0 mm 3 mps 749 mmHg 63%
    11:00 +10°C° 0 mm 4 mps 749 mmHg 57%
    12:00 +12°C° 0 mm 4 mps 748 mmHg 51%
    13:00 +13°C° 0 mm 5 mps 748 mmHg 53%
    14:00 +14°C° 0 mm 6 mps 747 mmHg 54%
    15:00 +15°C° 0 mm 7 mps 747 mmHg 56%
    16:00 +13°C° 0 mm 6 mps 747 mmHg 63%
    17:00 +12°C° 0 mm 4 mps 747 mmHg 71%
    18:00 +10°C° 0 mm 3 mps 747 mmHg 78%
    19:00 +9°C° 0 mm 3 mps 747 mmHg 83%
    20:00 +9°C° 0 mm 3 mps 747 mmHg 88%
    21:00 +8°C° 0 mm 3 mps 748 mmHg 92%
    22:00 +8°C° 0 mm 3 mps 748 mmHg 93%
    23:00 +7°C° 0 mm 3 mps 748 mmHg 94%

    29 January, Tuesday

    Time Temperature Precipitation Wind Pressure Humidity
    00:00 +7°C° 0 mm 3 mps 748 mmHg 95%
    01:00 +6°C° 0 mm 2 mps 748 mmHg 94%
    02:00 +6°C° 0 mm 2 mps 748 mmHg 94%
    03:00 +6°C° 0 mm 2 mps 748 mmHg 94%
    04:00 +5°C° 0 mm 2 mps 748 mmHg 93%
    05:00 +5°C° 0 mm 2 mps 748 mmHg 92%
    06:00 +5°C° 0 mm 2 mps 748 mmHg 91%
    07:00 +5°C° 0 mm 2 mps 748 mmHg 87%
    08:00 +6°C° 0 mm 2 mps 748 mmHg 83%
    09:00 +6°C° 0 mm 2 mps 749 mmHg 78%
    10:00 +8°C° 0 mm 2 mps 749 mmHg 70%
    11:00 +10°C° 0 mm 2 mps 749 mmHg 62%
    12:00 +13°C° 0 mm 2 mps 749 mmHg 53%
    13:00 +13°C° 0 mm 3 mps 749 mmHg 51%
    14:00 +14°C° 0 mm 3 mps 748 mmHg 49%
    15:00 +16°C° 0 mm 3 mps 748 mmHg 47%
    16:00 +14°C° 0 mm 3 mps 748 mmHg 54%
    17:00 +13°C° 0 mm 2 mps 748 mmHg 61%
    18:00 +10°C° 0 mm 2 mps 748 mmHg 69%
    19:00 +10°C° 0 mm 2 mps 748 mmHg 73%
    20:00 +9°C° 0 mm 2 mps 748 mmHg 76%
    21:00 +8°C° 0 mm 2 mps 749 mmHg 80%
    22:00 +8°C° 0 mm 2 mps 749 mmHg 81%
    23:00 +8°C° 0 mm 1 mps 749 mmHg 82%
    Show more